Location: Bun Machan
(52.1403°N, 7.3744°W)
Time: 08:44:17
(UTC+00:00)

SeaSat 1 - Pass Details

Date: 14 July 2020
Orbit: 744 x 747 km, 108.0° (Epoch: 04 August)

Event Time Altitude Azimuth Distance (km) Brightness Sun altitude
Rises 02:13:51 0° 35° (NE) 3,203 7.5 -13.2°
Reaches altitude 10° 02:16:15 10° 42° (NE) 2,275 6.2 -13.0°
Maximum altitude 02:20:58 44° 114° (ESE) 1,039 3.2 -12.7°
Enters shadow 02:24:47 15° 182° (S) 1,942 4.0 -12.5°
